Location: ?ern� Novina
(50.6762°N, 14.8696°E)
Time: 03:00:48
(UTC+00:00)

Cosmos 2333 - Pass Details

Date: 03 March 2021
Orbit: 829 x 867 km, 70.9° (Epoch: 13 April)

Event Time Altitude Azimuth Distance (km) Brightness Sun altitude
Rises 18:31:37 0° 191° (S) 3,375 7.3 -17.5°
Reaches altitude 10° 18:34:05 10° 186° (S) 2,450 6.5 -17.9°
Maximum altitude 18:39:31 52° 112° (ESE) 1,046 4.3 -18.8°
Drops below altitude 10° 18:45:02 10° 37° (NE) 2,491 6.4 -19.6°
Sets 18:47:34 0° 33° (NNE) 3,437 7.2 -20.0°
